Location: Baia Mare
(47.6567°N, 23.5850°E)
Time: 13:35:01
(UTC+03:00)

ISS - Pass Details

Date: 17 July 2019
Orbit: 409 x 418 km, 51.6° (Epoch: 21 July)

Event Time Altitude Azimuth Distance (km) Brightness Sun altitude
Rises 23:16:37 0° 238° (WSW) 2,345 0.1 -14.8°
Reaches altitude 10° 23:18:43 10° 236° (SW) 1,484 -1.0 -15.0°
Maximum altitude 23:22:02 70° 153° (SSE) 443 -3.9 -15.3°
Drops below altitude 10° 23:25:21 10° 69° (ENE) 1,485 -1.1 -15.6°
Sets 23:27:26 0° 67° (ENE) 2,348 0.0 -15.7°
